GSAT0224 (GALILEO 28)

Last updated on Fri Mar 06 2026 00:02:44 GMT+0000 (Coordinated Universal Time)

1 49810U 21116B 26064.29072237 -.00000105 00000+0 00000+0 0 9998 2 49810 57.1948 344.4822 0001942 295.2728 253.6293 1.70475760 26438
UTC large
Height (km)
Speed (km/s)
/
Latitude / Longitude
Inclination (degrees)
Orbital Period (minutes)
Azimuth
Elevation
Range (km)
Doppler Factor

Next 0 passes for location: London (51.5072 / 0.1276)

Sorry there are no passes over London.